• In Deutschland
  • Länderverzeichnis
  • Für 7 Tage
  • Wassertemperatur
  • Satellitenkarten
  • Wetterkarte
  • Widgets
  • user-avatar
    Anmelden

    Stündliche Wetter Pernik

    Heute, 22 Januar, Montag

    Zeit Temperatur Niederschläge Wind Luftdruck Luftfeuchtigkeit
    00:00 -1°C° 0,8 mm 3 m/S 681 mmHg 93%
    01:00 -2°C° 0,8 mm 3 m/S 681 mmHg 93%
    02:00 -5°C° 0 mm 5 m/S 681 mmHg 94%
    03:00 -6°C° 0,4 mm 5 m/S 681 mmHg 93%
    04:00 -5°C° 0,4 mm 4 m/S 682 mmHg 92%
    05:00 -5°C° 0,4 mm 3 m/S 682 mmHg 91%
    06:00 -5°C° 0,1 mm 3 m/S 682 mmHg 91%
    07:00 -5°C° 0,1 mm 3 m/S 682 mmHg 90%
    08:00 -6°C° 0,1 mm 3 m/S 682 mmHg 89%
    09:00 -5°C° 0,1 mm 3 m/S 683 mmHg 87%
    10:00 -4°C° 0,1 mm 4 m/S 683 mmHg 85%
    11:00 -4°C° 0,1 mm 4 m/S 684 mmHg 83%
    12:00 -3°C° 0,1 mm 4 m/S 684 mmHg 82%
    13:00 -3°C° 0,1 mm 4 m/S 684 mmHg 82%
    14:00 -3°C° 0,1 mm 4 m/S 685 mmHg 82%
    15:00 -2°C° 0 mm 3 m/S 685 mmHg 83%
    16:00 -4°C° 0 mm 3 m/S 685 mmHg 85%
    17:00 -3°C° 0 mm 2 m/S 685 mmHg 86%
    18:00 -4°C° 0 mm 2 m/S 686 mmHg 87%
    19:00 -5°C° 0 mm 2 m/S 686 mmHg 89%
    20:00 -5°C° 0 mm 2 m/S 687 mmHg 90%
    21:00 -4°C° 0 mm 1 m/S 687 mmHg 90%
    22:00 -6°C° 0 mm 1 m/S 687 mmHg 91%
    23:00 -6°C° 0 mm 1 m/S 687 mmHg 91%

    Morgen, 23 Januar, Dienstag

    Zeit Temperatur Niederschläge Wind Luftdruck Luftfeuchtigkeit
    00:00 -6°C° 0 mm 1 m/S 688 mmHg 90%
    01:00 -7°C° 0 mm 1 m/S 688 mmHg 89%
    02:00 -7°C° 0 mm 1 m/S 688 mmHg 88%
    03:00 -7°C° 0 mm 1 m/S 688 mmHg 86%
    04:00 -7°C° 0 mm 1 m/S 688 mmHg 85%
    05:00 -7°C° 0 mm 1 m/S 688 mmHg 83%
    06:00 -7°C° 0 mm 1 m/S 689 mmHg 81%
    07:00 -7°C° 0 mm 1 m/S 689 mmHg 80%
    08:00 -7°C° 0 mm 1 m/S 690 mmHg 78%
    09:00 -4°C° 0 mm 1 m/S 690 mmHg 74%
    10:00 -2°C° 0 mm 1 m/S 691 mmHg 70%
    11:00 -1°C° 0 mm 0 m/S 692 mmHg 66%
    12:00 +1°C° 0 mm 1 m/S 692 mmHg 66%
    13:00 +1°C° 0 mm 1 m/S 692 mmHg 66%
    14:00 +2°C° 0 mm 1 m/S 692 mmHg 65%
    15:00 +1°C° 0 mm 1 m/S 692 mmHg 70%
    16:00 0°C° 0 mm 1 m/S 693 mmHg 75%
    17:00 0°C° 0 mm 1 m/S 693 mmHg 80%
    18:00 -1°C° 0 mm 1 m/S 694 mmHg 82%
    19:00 -2°C° 0 mm 1 m/S 694 mmHg 85%
    20:00 -3°C° 0 mm 1 m/S 694 mmHg 88%
    21:00 -3°C° 0 mm 1 m/S 695 mmHg 88%
    22:00 -4°C° 0 mm 1 m/S 696 mmHg 89%
    23:00 -4°C° 0 mm 1 m/S 696 mmHg 90%

    übermorgen, 24 Januar, Mittwoch

    Zeit Temperatur Niederschläge Wind Luftdruck Luftfeuchtigkeit
    00:00 -6°C° 0 mm 1 m/S 696 mmHg 90%
    01:00 -6°C° 0 mm 1 m/S 697 mmHg 90%
    02:00 -6°C° 0 mm 1 m/S 697 mmHg 90%
    03:00 -6°C° 0 mm 1 m/S 697 mmHg 90%
    04:00 -6°C° 0 mm 1 m/S 697 mmHg 89%
    05:00 -6°C° 0 mm 1 m/S 697 mmHg 89%
    06:00 -6°C° 0 mm 1 m/S 698 mmHg 89%
    07:00 -6°C° 0 mm 1 m/S 698 mmHg 89%
    08:00 -6°C° 0 mm 1 m/S 699 mmHg 89%
    09:00 -4°C° 0 mm 1 m/S 699 mmHg 85%
    10:00 -2°C° 0 mm 1 m/S 700 mmHg 81%
    11:00 -1°C° 0 mm 1 m/S 701 mmHg 76%
    12:00 0°C° 0 mm 1 m/S 700 mmHg 74%
    13:00 -2°C° 0 mm 2 m/S 700 mmHg 72%
    14:00 -1°C° 0 mm 2 m/S 700 mmHg 70%
    15:00 0°C° 0 mm 1 m/S 700 mmHg 74%
    16:00 -1°C° 0 mm 1 m/S 700 mmHg 77%
    17:00 -2°C° 0 mm 1 m/S 700 mmHg 81%
    18:00 -3°C° 0 mm 1 m/S 700 mmHg 82%
    19:00 -4°C° 0 mm 1 m/S 700 mmHg 83%
    20:00 -6°C° 0 mm 1 m/S 700 mmHg 84%
    21:00 -6°C° 0 mm 1 m/S 700 mmHg 82%
    22:00 -6°C° 0 mm 1 m/S 700 mmHg 80%
    23:00 -6°C° 0 mm 1 m/S 700 mmHg 78%

    25 Januar, Donnerstag

    Zeit Temperatur Niederschläge Wind Luftdruck Luftfeuchtigkeit
    00:00 -6°C° 0 mm 1 m/S 700 mmHg 77%
    01:00 -6°C° 0 mm 1 m/S 700 mmHg 75%
    02:00 -6°C° 0 mm 1 m/S 700 mmHg 73%
    03:00 -6°C° 0 mm 1 m/S 699 mmHg 72%
    04:00 -6°C° 0 mm 1 m/S 699 mmHg 70%
    05:00 -6°C° 0 mm 1 m/S 699 mmHg 69%
    06:00 -6°C° 0 mm 1 m/S 699 mmHg 67%
    07:00 -6°C° 0 mm 1 m/S 699 mmHg 66%
    08:00 -6°C° 0 mm 1 m/S 699 mmHg 65%
    09:00 -3°C° 0 mm 1 m/S 699 mmHg 63%
    10:00 -1°C° 0 mm 1 m/S 699 mmHg 60%
    11:00 +1°C° 0 mm 1 m/S 699 mmHg 58%
    12:00 +2°C° 0 mm 1 m/S 699 mmHg 59%
    13:00 +3°C° 0 mm 1 m/S 698 mmHg 59%
    14:00 +4°C° 0 mm 1 m/S 698 mmHg 60%
    15:00 +3°C° 0 mm 1 m/S 697 mmHg 63%
    16:00 +2°C° 0 mm 1 m/S 697 mmHg 65%
    17:00 +1°C° 0 mm 1 m/S 697 mmHg 67%
    18:00 0°C° 0 mm 1 m/S 697 mmHg 67%
    19:00 -1°C° 0 mm 1 m/S 696 mmHg 66%
    20:00 -2°C° 0 mm 1 m/S 696 mmHg 66%
    21:00 -2°C° 0 mm 1 m/S 696 mmHg 64%
    22:00 -2°C° 0 mm 1 m/S 696 mmHg 63%
    23:00 -2°C° 0 mm 1 m/S 696 mmHg 61%

    26 Januar, Freitag

    Zeit Temperatur Niederschläge Wind Luftdruck Luftfeuchtigkeit
    00:00 -2°C° 0 mm 1 m/S 696 mmHg 60%
    01:00 -2°C° 0 mm 1 m/S 696 mmHg 60%
    02:00 -2°C° 0 mm 1 m/S 696 mmHg 59%
    03:00 -2°C° 0 mm 1 m/S 695 mmHg 59%
    04:00 -2°C° 0 mm 1 m/S 695 mmHg 58%
    05:00 -2°C° 0 mm 1 m/S 695 mmHg 58%
    06:00 -2°C° 0 mm 1 m/S 695 mmHg 58%
    07:00 -2°C° 0 mm 1 m/S 695 mmHg 58%
    08:00 -2°C° 0 mm 1 m/S 695 mmHg 57%
    09:00 0°C° 0 mm 1 m/S 695 mmHg 58%
    10:00 +2°C° 0 mm 1 m/S 696 mmHg 59%
    11:00 +4°C° 0 mm 1 m/S 696 mmHg 60%
    12:00 +4°C° 0 mm 1 m/S 696 mmHg 61%
    13:00 +5°C° 0 mm 1 m/S 696 mmHg 61%
    14:00 +6°C° 0 mm 1 m/S 695 mmHg 62%
    15:00 +4°C° 0 mm 1 m/S 695 mmHg 65%
    16:00 +3°C° 0 mm 1 m/S 695 mmHg 67%
    17:00 +2°C° 0 mm 1 m/S 695 mmHg 70%
    18:00 +1°C° 0 mm 1 m/S 695 mmHg 70%
    19:00 +1°C° 0 mm 1 m/S 695 mmHg 70%
    20:00 0°C° 0 mm 1 m/S 695 mmHg 71%
    21:00 0°C° 0 mm 1 m/S 696 mmHg 70%
    22:00 -1°C° 0 mm 1 m/S 696 mmHg 69%
    23:00 -1°C° 0 mm 1 m/S 696 mmHg 68%

    27 Januar, Samstag

    Zeit Temperatur Niederschläge Wind Luftdruck Luftfeuchtigkeit
    00:00 -1°C° 0 mm 1 m/S 696 mmHg 67%
    01:00 -1°C° 0 mm 1 m/S 696 mmHg 67%
    02:00 -1°C° 0 mm 1 m/S 696 mmHg 67%
    03:00 -1°C° 0 mm 1 m/S 696 mmHg 67%
    04:00 -1°C° 0 mm 1 m/S 696 mmHg 67%
    05:00 -1°C° 0 mm 1 m/S 696 mmHg 67%
    06:00 -1°C° 0 mm 1 m/S 696 mmHg 66%
    07:00 -1°C° 0 mm 1 m/S 696 mmHg 66%
    08:00 -1°C° 0 mm 1 m/S 696 mmHg 66%
    09:00 +1°C° 0 mm 1 m/S 697 mmHg 65%
    10:00 +2°C° 0 mm 1 m/S 697 mmHg 64%
    11:00 +4°C° 0 mm 1 m/S 698 mmHg 63%
    12:00 +5°C° 0 mm 1 m/S 698 mmHg 63%
    13:00 +6°C° 0 mm 1 m/S 698 mmHg 64%
    14:00 +6°C° 0 mm 1 m/S 698 mmHg 64%
    15:00 +5°C° 0 mm 1 m/S 698 mmHg 67%
    16:00 +4°C° 0 mm 1 m/S 698 mmHg 70%
    17:00 +3°C° 0 mm 1 m/S 698 mmHg 74%
    18:00 +2°C° 0 mm 1 m/S 698 mmHg 74%
    19:00 +1°C° 0 mm 1 m/S 698 mmHg 75%
    20:00 0°C° 0 mm 1 m/S 699 mmHg 76%
    21:00 0°C° 0 mm 1 m/S 699 mmHg 75%
    22:00 0°C° 0 mm 1 m/S 699 mmHg 74%
    23:00 0°C° 0 mm 1 m/S 699 mmHg 73%
    Mehr zeigen